Content
SEND FEEDBACK

Daily
Averages
Monthly
Summary
United States of America

WANN, OKLAHOMA


Home > North America > United States > Oklahoma
Elevation: 256 meters     Latitude: 36 55N     Longitude: 095 48W

WEATHER
 
SELECT A DAY
Number of Records: 177,901;   Date Range: 7/1/96 - 7/22/14
 
SHARE

PRINT THIS DATA

[ ← Previous Day ]
WEATHER ALMANAC - 13 FEBRUARY, 2013
[ Next Day → ]
[ °F ]   °C
Weather ElementAverageHighLow
Temperature2.6 °C12.2 °C (3:52 pm)-1.1 °C (5:52 am)
Dewpoint-0.9 °C2.2 °C (12:52 pm)-2.8 °C (5:52 pm)
Humidity81.6 %100 % (12:52 am)38 % (4:52 pm)
Barometer1015.6 hPa1017.3 hPa (9:52 am)1013.2 hPa (5:52 pm)
Wind Speed10.3 km/h20.4 km/h (3:52 pm)
Weather ElementAverage
Visibility9.7 km
Wind DirectionSSW (198.5 °)

Weather ElementTotal
Precipitation---
Heating Degree Days12.8 (Base 18.3)
Averaged from 41 records on 13 February, 2013
WEATHER CONDITIONS BREAKOUT
WIND DIRECTION BREAKOUT
WEATHER BY HOUR - 13 FEBRUARY, 2013
[ °F ]   °C
Local TimeTemperatureDewpointHumidityBarometerVisibilityWind DirectionWind SpeedGust SpeedPrecipitationEventsConditions
12:17 AM1 °C0 °C93 %1016.3 hPa6.4 kmCalm0 mmOvercast
12:42 AM1 °C0 °C93 %1016.3 hPa6.4 kmCalm0 mmOvercast
12:52 AM0.6 °C0.6 °C100 %1016.9 hPa6.4 kmCalm0 mmOvercast
1:52 AM0.6 °C0 °C96 %1016.6 hPa4.8 kmCalmMostly Cloudy
2:05 AM1 °C-1 °C87 %1016.3 hPa4 kmCalmScattered Clouds
2:39 AM0 °C0 °C100 %1015.9 hPa4.8 kmCalmClear
2:52 AM0 °C0 °C100 %1016.3 hPa4 kmWest (260°)5.6 km/hClear
3:14 AM-1 °C-1 °C100 %1015.9 hPa6.4 kmWest (270°)11.1 km/hClear
3:34 AM-1 °C-1 °C100 %1015.9 hPa4 kmWSW (240°)5.6 km/hPartly Cloudy
3:41 AM-1 °C-1 °C100 %1015.6 hPa1.6 kmWSW (250°)5.6 km/hMist
3:52 AM0 °C-1.1 °C92 %1016.3 hPa3.2 kmWSW (250°)9.3 km/hMostly Cloudy
4:02 AM0 °C-1 °C93 %1015.6 hPa1.9 kmWSW (240°)11.1 km/hOvercast
4:16 AM0 °C-1 °C93 %1015.6 hPa1.3 kmWSW (240°)13 km/hOvercast
4:23 AM0 °C-1 °C93 %1015.2 hPa1.6 kmSW (230°)9.3 km/hMist
4:40 AM-1 °C-1 °C100 %1015.2 hPa1.3 kmSSW (200°)7.4 km/hMist
4:52 AM-0.6 °C-0.6 °C100 %1015.9 hPa0.8 kmSSW (200°)7.4 km/hFogLight Freezing Fog
5:18 AM-1 °C-2 °C93 %1015.2 hPa3.2 kmSSW (200°)11.1 km/hMostly Cloudy
5:22 AM-1 °C-2 °C93 %1014.9 hPa8 kmSSW (200°)11.1 km/hScattered Clouds
5:52 AM-1.1 °C-2.2 °C92 %1015.9 hPa4 kmSouth (180°)7.4 km/hClear
6:00 AM-1 °C-2 °C93 %1015.2 hPa8 kmSSW (200°)7.4 km/hClear
6:49 AM-1 °C-2 °C93 %1015.6 hPa16.1 kmWSW (250°)11.1 km/hScattered Clouds
6:52 AM-0.6 °C-1.7 °C92 %1016.3 hPa16.1 kmWSW (250°)11.1 km/hScattered Clouds
7:00 AM-1 °C-2 °C93 %1015.6 hPa16.1 kmWest (260°)9.3 km/hMostly Cloudy
7:52 AM-0.6 °C-1.1 °C96 %1016.9 hPa11.3 kmWSW (250°)13 km/hOvercast
8:52 AM0 °C-1.1 °C92 %1016.9 hPa9.7 kmWSW (240°)16.7 km/hOvercast
9:52 AM0.6 °C-0.6 °C92 %1017.3 hPa11.3 kmWSW (240°)14.8 km/hMostly Cloudy
9:59 AM1 °C-1 °C87 %1016.3 hPa11.3 kmSW (230°)13 km/hPartly Cloudy
10:52 AM2.2 °C0.6 °C89 %1016.9 hPa12.9 kmSW (230°)13 km/hPartly Cloudy
11:52 AM5 °C1.7 °C79 %1016.9 hPa16.1 kmSW (230°)14.8 km/hClear
12:52 PM7.8 °C2.2 °C68 %1015.6 hPa16.1 kmSW (230°)14.8 km/hClear
1:52 PM9.4 °C1.1 °C56 %1014.9 hPa16.1 kmWSW (240°)13 km/hClear
2:52 PM11.1 °C0.6 °C49 %1013.9 hPa16.1 kmSW (230°)18.5 km/hClear
3:52 PM12.2 °C-1.1 °C40 %1013.5 hPa16.1 kmWSW (240°)20.4 km/hClear
4:52 PM12.2 °C-1.7 °C38 %1013.5 hPa16.1 kmWSW (250°)16.7 km/hClear
5:52 PM10 °C-2.8 °C41 %1013.2 hPa16.1 kmSW (230°)13 km/hClear
6:52 PM8.9 °C-2.2 °C46 %1013.5 hPa16.1 kmSW (230°)16.7 km/hClear
7:52 PM7.2 °C-1.7 °C53 %1013.9 hPa16.1 kmSW (230°)13 km/hClear
8:52 PM7.8 °C-0.6 °C56 %1013.9 hPa16.1 kmSW (230°)18.5 km/hClear
9:52 PM6.7 °C-1.1 °C58 %1013.9 hPa16.1 kmSW (230°)16.7 km/hClear
10:52 PM6.1 °C-1.7 °C58 %1014.2 hPa16.1 kmSW (230°)14.8 km/hClear
11:52 PM5 °C-2.2 °C60 %1014.2 hPa16.1 kmSW (230°)9.3 km/hClear
Hourly data recorded from KCFV, located 0 kilometers away from Wann, Oklahoma







STORIES FROM OUR PARTNERS